{"data":{"norad_id":64688,"epoch":"2026-09-20T09:09:41.110848Z","epoch_age_seconds":141791,"freshness":"FRESH","line1":"1 64688U 25139AA  26263.38172582  .00013033  00000+0  39619-3 0  9997","line2":"2 64688  53.1578 298.3622 0000857  72.4517 287.6579 15.34398746 70215","mean_motion":15.34398746,"eccentricity":8.57e-5,"inclination_deg":53.1578,"raan_deg":298.3622,"arg_perigee_deg":72.4517,"mean_anomaly_deg":287.6579,"bstar":0.00039619,"rev_number":7021,"period_min":93.847834779187,"perigee_km":462.12070703391,"apogee_km":463.29322768992,"semimajor_km":6840.8439673619,"source":"CELESTRAK","updated_at":"2026-09-21T09:00:35.402026Z"}}